This demonstration page uses our WeatherBlox Daily Observations layout. Learn more.

Left ArrowRight Arrow

41.55636, -103.73856

Hourly Observations for May 24, 2022

Temp ( °F °C ) Dew Point ( °F °C ) Humidity (%) Winds ( mph kmh ) Pressure ( in mb ) Visibility ( mi km ) Precip ( " mm )
12:58 am 00:58 Mostly Clear 39 3.9 38 3.3 96 96 SSE 8 13 30.07 1018 10 16 0.00 0.00
1:58 am 01:58 Mostly Cloudy 40 4.3 38 3.1 92 92 SE 7 11 30.04 1017 10 16 0.00 0.00
2:58 am 02:58 Partly Cloudy 39 3.8 37 2.6 92 92 S 6 9 30.01 1016 10 16 0.00 0.00
3:58 am 03:58 Partly Cloudy 36 2 34 1.1 94 94 SW 6 9 30.02 1017 10 16 0.00 0.00
4:58 am 04:58 Cloudy 38 3.4 36 2.4 93 93 Calm 30.04 1017 10 16 0.00 0.00
5:58 am 05:58 Mostly Sunny 38 3.1 36 2.2 94 94 Calm 30.02 1017 10 16 0.00 0.00
6:58 am 06:58 Cloudy 40 4.3 38 3.6 95 95 S 3 6 30.04 1017 10 16 0.00 0.00
7:58 am 07:58 Cloudy 42 5.8 39 4.1 89 89 Calm 30.02 1017 10 16 0.00 0.00
8:58 am 08:58 Cloudy 44 6.9 39 3.9 81 81 Calm 30.01 1016 10 16 0.00 0.00
10:58 am 10:58 Mostly Cloudy 48 9 38 3.2 67 67 E 6 9 30.00 1016 10 16 0.00 0.00
11:58 am 11:58 Mostly Sunny 50 10.2 39 3.9 65 65 NE 8 13 30.00 1016 10 16 0.00 0.00
12:58 pm 12:58 Partly Cloudy 52 11.1 39 4.1 62 62 NE 5 7 29.98 1015 10 16 0.00 0.00
1:58 pm 13:58 Mostly Cloudy 53 11.5 40 4.2 61 61 E 13 20 29.97 1015 10 16 0.00 0.00
2:58 pm 14:58 Mostly Sunny 53 11.4 39 3.9 60 60 E 10 17 29.98 1015 10 16 0.00 0.00
3:58 pm 15:58 Sunny 52 11.3 38 3.6 59 59 SSE 9 15 29.96 1015 10 16 0.00 0.00
4:58 pm 16:58 Sunny 53 11.5 38 3.3 57 57 E 9 15 29.95 1014 10 16 0.00 0.00
5:58 pm 17:58 Sunny 52 11 38 3.1 59 59 E 9 15 29.97 1015 10 16 0.00 0.00
6:58 pm 18:58 Sunny 51 10.5 39 4 64 64 SSE 9 15 29.96 1015 10 16 0.00 0.00
7:58 pm 19:58 Sunny 48 9.1 38 3.5 68 68 SE 6 9 29.99 1016 10 16 0.00 0.00
8:58 pm 20:58 Cloudy 46 7.7 39 3.9 77 77 S 7 11 30.01 1016 10 16 0.00 0.00
9:58 pm 21:58 Clear 43 6.3 38 3.5 82 82 S 3 6 30.03 1017 10 16 0.00 0.00
10:58 pm 22:58 Partly Cloudy 43 6 37 2.5 78 78 SSW 5 7 30.04 1017 10 16 0.00 0.00
11:58 pm 23:58 Clear 41 5.2 37 2.7 84 84 SSW 5 7 30.00 1016 10 16 0.00 0.00

Powered by AerisWeather